This is the latest recevied weather packets stored in our database for station/object YD2CLX-15. If no packets are shown the sender has not sent any weather packets the latest 10 day(s).
| Time | Temp. | Humidity | Pressure | Rain* | Wind** | Luminosity | Snow |
|---|---|---|---|---|---|---|---|
| 1788384634 | 16.11° C | 90% | 1015 hPa | 0 mm | - | - | - |
| 1788383734 | 16.67° C | 86% | 1015 hPa | 0 mm | - | - | - |
| 1788382836 | 16.67° C | 90% | 1015 hPa | 0 mm | - | - | - |
| 1788381933 | 16.67° C | 89% | 1015 hPa | 0 mm | - | - | - |
| 1788381034 | 16.67° C | 90% | 1015 hPa | 0 mm | - | - | - |
| 1788380134 | 16.67° C | 86% | 1014 hPa | 0 mm | - | - | - |
| 1788379238 | 16.67° C | 89% | 1014 hPa | 0 mm | - | - | - |
| 1788378333 | 16.67° C | 87% | 1015 hPa | 0 mm | - | - | - |
| 1788377436 | 16.67° C | 87% | 1014 hPa | 0 mm | - | - | - |
| 1788376533 | 17.22° C | 80% | 1014 hPa | 0 mm | - | - | - |
| 1788375639 | 17.22° C | 86% | 1015 hPa | 0 mm | - | - | - |
| 1788374733 | 17.22° C | 86% | 1015 hPa | 0 mm | - | - | - |
| 1788373835 | 16.67° C | 88% | 1015 hPa | 0 mm | - | - | - |
| 1788372934 | 17.22° C | 89% | 1015 hPa | 0 mm | - | - | - |
| 1788372037 | 10° C | 85% | 1015 hPa | 0 mm | - | - | - |
| 1788371134 | 11.11° C | 85% | 1015 hPa | 0 mm | - | - | - |
| 1788370235 | 12.22° C | 85% | 1015 hPa | 0 mm | - | - | - |
| 1788369333 | 13.33° C | 85% | 1016 hPa | 0 mm | - | - | - |
| 1788368437 | 14.44° C | 85% | 1016 hPa | 0 mm | - | - | - |
| 1788367534 | 15.56° C | 85% | 1016 hPa | 0 mm | - | - | - |
| 1788366634 | 16.67° C | 85% | 1016 hPa | 0 mm | - | - | - |
| 1788365734 | 17.78° C | 85% | 1016 hPa | 0 mm | - | - | - |
| 1788364839 | 11.11° C | 88% | 1016 hPa | 0 mm | - | - | - |
| 1788363933 | 12.22° C | 88% | 1016 hPa | 0 mm | - | - | - |
| 1788363035 | 13.33° C | 88% | 1016 hPa | 0 mm | - | - | - |
* Rain latest hour (hover to see other rain measurements)
** Current wind speed in m/s (hover to see current wind gust speed)